Estación de La Cruz

Ultimos registro cada 15 minutos 30
Estación Fecha / Hora Temperatura Humedad Lluvia Velocidad Dirección Radiación Presion
30 La Cruz 07-05-2026 07:15 10,1 90,8 0 0 195 0,6 1005,9
29 La Cruz 07-05-2026 07:00 10,6 90,7 0 0 195 0,6 1005,7
28 La Cruz 07-05-2026 06:45 10,8 90,3 0 0 195 0,6 1005,6
27 La Cruz 07-05-2026 06:30 10,8 89,9 0 0 195 0,6 1005,5
26 La Cruz 07-05-2026 06:15 11 89,8 0 0 195 0,6 1005,4
25 La Cruz 07-05-2026 06:00 10,9 89,7 0 0 195 0,6 1005,2
24 La Cruz 07-05-2026 05:45 10,9 89,9 0 0 195 0,6 1005,2
23 La Cruz 07-05-2026 05:30 10,8 90,5 0 0 195 0,6 1005,2
22 La Cruz 07-05-2026 05:15 10,7 90,2 0 0 195 0,6 1004,9
21 La Cruz 07-05-2026 05:00 10,8 89,8 0 0 195 0,6 1004,7
20 La Cruz 07-05-2026 04:45 11,1 89,6 0 0 195 0,6 1004,7
19 La Cruz 07-05-2026 04:30 11,1 89,4 0 0 195 0,6 1004,5
18 La Cruz 07-05-2026 04:15 11,1 89,2 0 0 195 0,6 1004,5
17 La Cruz 07-05-2026 04:00 11,1 88,8 0 0 195 0,6 1004,6
16 La Cruz 07-05-2026 03:45 11,3 88,3 0 0 195 0,6 1004,5
15 La Cruz 07-05-2026 03:30 11,3 87,5 0 0 195 0,6 1004,5
14 La Cruz 07-05-2026 03:15 11,4 86,3 0 0 195 0,6 1004,4
13 La Cruz 07-05-2026 03:00 11,5 84,4 0 0 212 0,6 1004,7
12 La Cruz 07-05-2026 02:45 11,5 84,1 0 0 202 0,6 1004,7
11 La Cruz 07-05-2026 02:30 11,5 84,2 0 0 205 0,6 1004,6
10 La Cruz 07-05-2026 02:15 11,3 85,1 0 0 226 0,6 1004,6
9 La Cruz 07-05-2026 02:00 11,1 88,7 0 0 244 0,6 1004,5
8 La Cruz 07-05-2026 01:45 11 89 0 0 244 0,6 1004,4
7 La Cruz 07-05-2026 01:30 11,6 87,7 0 0 244 0,6 1004
6 La Cruz 07-05-2026 01:15 11,6 87 0 0 244 0,6 1004
5 La Cruz 07-05-2026 01:00 11,8 87,6 0 0 213 0,6 1004
4 La Cruz 07-05-2026 00:45 11,8 88,9 0 0 211 0,6 1004,2
3 La Cruz 07-05-2026 00:30 11,7 90,5 0 0 240 0,6 1004,2
2 La Cruz 07-05-2026 00:15 11,7 92,7 0 0 219 0,6 1004
1 La Cruz 07-05-2026 00:00 12 93,8 0 0 205 0,6 1003,9